TimeMST,TemperatureF,Dew PointF,Humidity,Sea Level PressureIn,VisibilityMPH,Wind Direction,Wind SpeedMPH,Gust SpeedMPH,PrecipitationIn,Events,Conditions,WindDirDegrees,DateUTC
12:11 AM,24.8,17.6,74,29.81,10.0,Variable,3.5,-,N/A,,Mostly Cloudy,0,2013-03-04 07:11:00
12:48 AM,24.8,19.4,80,29.80,10.0,SE,9.2,-,N/A,,Scattered Clouds,140,2013-03-04 07:48:00
12:53 AM,24.1,19.0,81,29.81,10.0,SSE,8.1,-,N/A,,Partly Cloudy,150,2013-03-04 07:53:00
1:53 AM,24.1,18.0,77,29.83,10.0,SE,9.2,-,N/A,,Mostly Cloudy,140,2013-03-04 08:53:00
2:33 AM,24.8,15.8,69,29.82,10.0,SSE,5.8,-,N/A,,Overcast,150,2013-03-04 09:33:00
2:53 AM,25.0,15.1,66,29.83,10.0,SSE,5.8,-,N/A,,Overcast,150,2013-03-04 09:53:00
3:53 AM,24.1,14.0,65,29.83,10.0,ESE,3.5,-,N/A,,Overcast,110,2013-03-04 10:53:00
4:53 AM,23.0,16.0,74,29.86,10.0,Calm,Calm,-,N/A,,Overcast,0,2013-03-04 11:53:00
5:53 AM,24.1,16.0,71,29.89,5.0,SW,5.8,-,N/A,,Haze,220,2013-03-04 12:53:00
6:53 AM,23.0,16.0,74,29.91,10.0,West,5.8,-,0.00,,Mostly Cloudy,260,2013-03-04 13:53:00
7:53 AM,21.0,15.1,78,29.99,10.0,NNE,19.6,-,N/A,,Partly Cloudy,30,2013-03-04 14:53:00
8:41 AM,21.2,14.0,74,29.98,10.0,ENE,9.2,-,N/A,,Mostly Cloudy,60,2013-03-04 15:41:00
8:51 AM,21.2,12.2,68,29.98,10.0,NNE,4.6,-,N/A,,Scattered Clouds,30,2013-03-04 15:51:00
8:53 AM,21.9,12.9,68,30.04,10.0,NNE,5.8,-,N/A,,Partly Cloudy,30,2013-03-04 15:53:00
9:53 AM,23.0,10.0,58,30.10,10.0,ENE,6.9,-,N/A,,Overcast,60,2013-03-04 16:53:00
10:53 AM,26.1,10.9,53,30.14,10.0,East,8.1,-,N/A,,Partly Cloudy,100,2013-03-04 17:53:00
11:53 AM,27.0,10.9,51,30.14,10.0,ESE,8.1,-,N/A,,Clear,120,2013-03-04 18:53:00
12:53 PM,28.9,16.0,58,30.15,10.0,East,15.0,-,N/A,,Mostly Cloudy,80,2013-03-04 19:53:00
1:53 PM,28.0,12.9,53,30.17,10.0,Variable,6.9,-,N/A,,Clear,0,2013-03-04 20:53:00
2:53 PM,26.1,15.1,63,30.19,10.0,East,8.1,-,N/A,,Clear,80,2013-03-04 21:53:00
3:53 PM,28.0,12.9,53,30.21,10.0,ESE,5.8,-,N/A,,Partly Cloudy,120,2013-03-04 22:53:00
4:53 PM,25.0,12.0,58,30.25,10.0,ESE,4.6,-,N/A,,Scattered Clouds,110,2013-03-04 23:53:00
5:53 PM,24.1,12.0,60,30.27,10.0,East,4.6,-,N/A,,Mostly Cloudy,100,2013-03-05 00:53:00
6:53 PM,24.1,12.9,62,30.30,10.0,SSE,5.8,-,N/A,,Overcast,160,2013-03-05 01:53:00
7:53 PM,21.9,12.0,66,30.32,10.0,ESE,8.1,-,N/A,,Partly Cloudy,110,2013-03-05 02:53:00
8:53 PM,19.0,10.9,71,30.34,10.0,ESE,6.9,-,N/A,,Clear,120,2013-03-05 03:53:00
9:53 PM,18.0,9.0,68,30.34,10.0,SW,4.6,-,N/A,,Clear,220,2013-03-05 04:53:00
10:53 PM,16.0,9.0,74,30.35,10.0,WNW,5.8,-,N/A,,Clear,290,2013-03-05 05:53:00
11:53 PM,16.0,7.0,68,30.34,10.0,West,8.1,-,N/A,,Clear,260,2013-03-05 06:53:00